Terminal Aerodrome Forecast
Issued by NWS

Home | Current Version | Previous Version | Text Only | Print | Product List | Glossary On
Versions: 1 2 3 4 5 6 7 8 9 10 11 12 13 14 15 16 17 18 19 20 21 22 23
000
FTUS44 KOHX 020200 AAB
TAFCKV
TAF AMD
KCKV 020202Z 0202/0224 28015G25KT P6SM VCSH SCT015 OVC035
     FM020500 31015G25KT P6SM -SHSN OVC025
     FM021600 33012KT P6SM OVC030=

USA.gov is the U.S. government's official web portal to all federal, state and local government web resources and services.